Location: ČR
(50.0000°N, 15.0000°E)
Time: 10:45:26
(UTC+02:00)

A-11 Canister half - Pass Details

Date: 15 March 2026
Orbit: 1514 x 1685 km, 47.2° (Epoch: 16 April)

Event Time Altitude Azimuth Distance (km) Brightness Sun altitude
Rises 11:55:32 0° 181° (S) 4,806 12.5 37.9°
Reaches altitude 10° 12:00:02 10° 163° (SSE) 3,856 12.3 37.9°
Maximum altitude 12:05:49 17° 126° (SE) 3,335 11.4 38.0°
Drops below altitude 10° 12:11:40 10° 90° (E) 3,930 11.2 38.0°
Sets 12:16:16 0° 72° (ENE) 4,937 11.5 37.9°
